map of KTM home
Great Circle Mapper logo
KTM - Airport
Location
City:  Kathmandu, Nepal
Name:Tribhuvan International Airport
Old (Alt.):Gauchar Airport
ICAO / IATA:VNKT / KTM

Details
Type:Airport (Aerodrome, Airfield)
Use:Public/Civil, International (customs port of entry)
Latitude:27°41'48"N (27.696583)
Longitude:85°21'33"E (85.359100)
Datum:WGS 1984
Elevation:4390 ft (1338 m)
Variation:0.3°E (WMM2015 magnetic declination)
Runways:1
Longest:10007 × 148 ft (3050 × 45 m), paved

Time
Time Zone:UTC+5:45
Local Time:

Weather
METAR:VNKT 202150Z 00000KT 6000 FEW020 05/03 Q1019 NOSIG
TAF:VNKT 200900Z 2012/2112 00000KT 6000 FEW020 SCT100
BECMG 2100/2102 3000 BR FEW015 PROB30
TEMPO 2100/2103 1000 MIFG
BECMG 2104/2105 15003KT 5000 HZ FEW020
BECMG 2106/2107 20007KT 7000 FEW020 SCT100

Related Locations
Nearby:
Farthest:SCFX: 11544 mi / 18579 km
Isla San Félix, Desventuradas Islands, VS, CL

Find:

   beyond  
but within

Other Information
Maps:
NOTAMs:
Links:
Sources:

  
flag of Nepal   

Sectional Chart

Flight Planning
at skyvector.com

Satellite Image

Google Maps Satellite View

 

Copyright © 2004-2014 Karl L. Swartz. All rights reserved.
The Great Circle Mapper name and logo are trademarks of the Great Circle Mapper.
All other trademarks mentioned herein belong to their respective owners.
Please see credits for attibutions and further copyright information.

  Follow gcmap on Facebook Follow gcmap on Twitter

hCard Microformat

Geo Microformat